Regional Weather Roundup
Issued by NWS

Home | Current Version | Previous Version | Graphics & Text | Print | Product List | Glossary On
Versions: 1 2 3 4 5 6 7 8 9 10 11 12 13 14 15 16 17 18 19 20 21 22 23 24 25 26 27
000
ASUS45 KSLC 040310
RWRUT

UTAH REGIONAL WEATHER ROUNDUP
NATIONAL WEATHER SERVICE SALT LAKE CITY UT
900 PM MDT TUE MAY 03 2016

UTZ001>011-023>025-040400-

NORTHERN UTAH

CITY           SKY/WX    TMP DP  RH WIND       PRES   REMARKS
BRIGHAM CITY   CLEAR     67  34  29 CALM      30.14R
HILL AFB       CLEAR     64  26  24 NW3       30.15S
LOGAN          CLEAR     63  41  44 E3        30.14R
OGDEN          CLEAR     64  29  26 CALM      30.14R
PROVO AIRPORT  CLEAR     63  41  45 NW7       30.14
SALT LAKE CITY PTCLDY    64  37  36 W6        30.13R
VERNAL         CLEAR     60  27  28 W5        30.19R
WENDOVER       CLEAR     64  32  29 CALM      30.14S
HEBER CITY     CLEAR     55  34  44 S3        30.17R

$$

UTZ012>022-026-027-040400-

SOUTHERN/CENTRAL UTAH

CITY           SKY/WX    TMP DP  RH WIND       PRES   REMARKS
BLANDING       CLEAR     56  33  41 N8        30.26S
BRYCE CANYON   CLEAR     46  24  42 SE6       30.29R
CEDAR CITY     CLEAR     59  35  40 S9        30.15R
DELTA          CLEAR     63  30  29 N6        30.12S
HANKSVILLE     CLEAR     64  27  24 CALM      30.16R
MILFORD        CLEAR     59  31  34 N9        30.12R
MOAB/CYNLANDS  CLEAR     66  31  27 W8        30.11R
PRICE          CLEAR     56  30  37 N9        30.20R
ST GEORGE      CLEAR     75  30  19 E9        30.02R
KANAB          CLEAR     61  30  31 CALM      30.19R

$$

REGIONAL REPORTS     COLORADO/ARIZONA

CITY           SKY/WX    TMP DP  RH WIND       PRES   REMARKS
CRAIG, CO      CLEAR     50  34  54 S5        30.24R
GRAND JUNCTION CLEAR     58  39  49 CALM      30.13R
RIFLE          CLEAR     63  26  24 CALM      30.18R
MONTROSE       CLEAR     57  30  35 E3        30.20R
CORTEZ         CLEAR     56  31  38 SW9       30.21R
PAGE, AZ       CLEAR     68  29  23 NE3       30.12R
GRAND CANYON   CLEAR     48  31  51 NE3       30.24R
KINGMAN        PTCLDY    73  36  25 W6        30.00R
FLAGSTAFF      CLEAR     47  34  60 E5        30.25R

$$

REGIONAL REPORTS    NEVADA/IDAHO/WYOMING

CITY           SKY/WX    TMP DP  RH WIND       PRES   REMARKS
LAS VEGAS, NV  MOCLDY    81  28  14 NW8       29.90F
ELY            CLEAR     55  31  39 VRB5      30.17S
ELKO           CLEAR     62  37  39 E6        30.10S
POCATELLO, ID  CLEAR     65  33  30 W5        30.14S
BURLEY         CLEAR     61  37  41 SE7       30.09R
EVANSTON, WY   CLEAR     56  22  26 E8        30.25R
ROCK SPRINGS   CLEAR     58  20  22 S3        30.26R
KEMMERER         N/A     54  19  26 SE6       30.28R

$$




USA.gov is the U.S. government's official web portal to all federal, state and local government web resources and services.